Regional Weather Roundup
Issued by NWS Goodland, KS

Home | Current Version | Previous Version | Graphics & Text | Print | Product List | Glossary On
Versions: 1 2 3 4 5 6 7 8 9 10 11 12 13 14 15 16 17 18 19 20 21 22 23 24 25 26 27 28 29 30 31 32 33 34 35 36 37 38 39 40 41 42 43 44 45 46 47 48 49 50
000
ASUS43 KGLD 242308
RWRGLD

GOODLAND FORECAST AREA HOURLY WEATHER ROUNDUP
NATIONAL WEATHER SERVICE GOODLAND KS
500 PM MDT WED MAY 24 2017

...OFFICIAL OBSERVATIONS...

CITY           SKY/WX    TMP DP  RH WIND       PRES   REMARKS
GOODLAND KS    SUNNY     76  43  30 S15       29.61F
HILL CITY KS   SUNNY     71  40  32 S8        29.66F
IMPERIAL NEB   SUNNY     74  44  34 SE21      29.57F
MCCOOK NEB     SUNNY     73  43  33 S12       29.61F
AKRON CO       SUNNY     80  40  23 SW15G21   29.60F
BURLINGTON CO  SUNNY     76  47  35 S14G22    29.64F
LIMON CO       SUNNY     78  39  24 S14       29.66F
$$

...UNOFFICIAL OBSERVATIONS...

CITY           SKY/WX    TMP DP  RH WIND       PRES   REMARKS
LENORA KS        N/A     74  32  21 MISG        N/A
NORTON KS      SUNNY     68  37  32 SE8       29.64F
SHARON SPRINGS   N/A     76  46  34 S14G22      N/A
TRENTON NEB      N/A     73  32  22 S9          N/A
KIT CARSON CO    N/A     78  45  30 MISG        N/A
YUMA CO        FAIR      81  43  26 SW9       29.57F
$$




USA.gov is the U.S. government's official web portal to all federal, state and local government web resources and services.